Regional Weather Roundup
Issued by NWS Green Bay, WI

Home | Current Version | Previous Version | Text Only | Print | Product List | Glossary On
Versions: 1 2 3 4 5 6 7 8 9 10 11 12 13 14 15 16 17 18 19 20 21 22 23 24 25 26 27 28 29 30 31 32 33 34 35 36 37 38 39 40 41 42 43 44 45 46 47 48 49 50
000
ASUS43 KGRB 041511
RWRGRB

NORTH-CENTRAL AND NORTHEAST WISCONSIN REGIONAL WEATHER ROUNDUP
NATIONAL WEATHER SERVICE GREEN BAY WI
900 AM CST SUN DEC 04 2016

WIZ005-009-010>012-018-019-041600-
NORTH CENTRAL WISCONSIN

CITY           SKY/WX    TMP DP  RH WIND       PRES   REMARKS
IRONWOOD       FLURRIES  28  25  88 SE5       29.98F
MANITOWISH WTR LGT SNOW  26  26 100 SE7       29.97F
ARBOR VITAE    LGT SNOW  29  27  92 SE7       29.98F
EAGLE RIVER    LGT SNOW  26  22  86 SE6       30.00F
LAND O LAKES   LGT SNOW  27  24  87 S6        30.01F
RHINELANDER    LGT SNOW  27  25  92 SE6       30.01F VSB 1
PHILLIPS       LGT SNOW  27  26  95 SE8       29.98F
ANTIGO         LGT SNOW  26  25  95 SE9       30.03F
TOMAHAWK       LGT SNOW  27  24  91 SE5       30.01F
MERRILL        LGT SNOW  28  26  96 SE7       30.03F
$$

WIZ013-073-041600-
NORTHEAST WISCONSIN

CITY           SKY/WX    TMP DP  RH WIND       PRES   REMARKS
IRON MOUNTAIN  CLOUDY    29  21  72 SE7       30.05F
MARINETTE      NOT AVBL
OCONTO         CLOUDY    30  28  90 CALM      30.12F
$$

WIZ017-030-035>037-045-041600-
CENTRAL WISCONSIN

CITY           SKY/WX    TMP DP  RH WIND       PRES   REMARKS
MEDFORD        LGT SNOW  27  26  93 SE6       29.99S
WAUSAU         LGT SNOW  28  26  92 SE8       30.03F FOG
MOSINEE        LGT SNOW  28  28 100 SE8       30.04F
MARSHFIELD     LGT SNOW  29  27  92 SE8       30.00F VSB 3/4
WISC RAPIDS    LGT SNOW  30  29  96 SE8       30.05F VSB 1
STEVENS POINT  MIX PCPN  28  28 100 SE6       30.05F
WAUPACA        LGT SNOW  32  30  92 CALM      30.08F
SHAWANO        LGT SNOW  32  29  90 SE3       30.09F
CLINTONVILLE   LGT SNOW  30  30 100 SE6       30.09F
WAUTOMA        LGT SNOW  30  28  93 SE7       30.08F FOG
$$

WIZ038-039-048-051-041600-
FOX VALLEY

CITY           SKY/WX    TMP DP  RH WIND       PRES   REMARKS
NWS GREEN BAY  LGT SNOW  31  30  96 SE7       30.11F FOG
APPLETON       LGT SNOW  30  30 100 S6        30.08F
OSHKOSH        LGT SNOW  30  28  92 SE7       30.09F VSB 1
FOND DU LAC    LGT SNOW  31  27  85 S8        30.10F FOG
$$

WIZ022-050-052-041600-
EAST CENTRAL WISCONSIN

CITY           SKY/WX    TMP DP  RH WIND       PRES   REMARKS
EPHRAIM        CLOUDY    31  24  74 CALM      30.11F
WASHINGTON ISL CLOUDY    32  23  70 S6        30.13F
STURGEON BAY   CLOUDY    31  24  75 S6        30.13F
MANITOWOC      MIX PCPN  31  28  89 SW3       30.13F FOG
SHEBOYGAN      CLOUDY    31  27  85 CALM      30.12F
$$

LMZ563-521-522-541>543-041600-
LAKESHORE

STATION/POSITION TIME  TEMP    WIND        PRES    VSBY  WAVE
                       AIR SEA DIR/SP/G                  HT/PER
                 (UTC) (F)     (DEG/KT/KT) (MB)    (MI)  (FT/S)
SHEBOYGAN LKSHOR 1500   33     220/  6/  7 1020.6F
KEWAUNEE LKSHORE 1448   30     220/  5/  7 1020.0F
ALGOMA MARINA    1451          230/  9/ 11   N/A
NORTHPORT PIER   1440   33     170/  2/  5 1020.7F
SISTER BAY LKSHO 1438   32     200/  8/ 10   N/A
CHAMBERS ISLAND  1440   33     210/  2/  8 1020.0F
MENOMINEE LKSHOR 1448   32     200/  4/  4 1019.3F
$$



USA.gov is the U.S. government's official web portal to all federal, state and local government web resources and services.